Location: Beuvrequen
(50.8014°N, 1.6652°E)
Time: 07:51:19
(UTC+00:00)

Cosmos 1844 - Pass Details

Date: 03 June 2022
Orbit: 821 x 869 km, 70.9° (Epoch: 02 July)

Event Time Altitude Azimuth Distance (km) Brightness Sun altitude
Rises 22:32:27 0° 319° (NW) 3,466 8.2 -14.7°
Reaches altitude 10° 22:35:41 10° 302° (WNW) 2,522 6.9 -14.9°
Maximum altitude 22:39:25 18° 261° (W) 2,012 5.8 -15.1°
Drops below altitude 10° 22:43:07 10° 221° (SW) 2,502 5.8 -15.3°
Enters shadow 22:43:58 - 215° (SW) 2,721 6.0 -15.3°
